Location: Le Petit-Vavre
(46.5081°N, 1.5239°E)
Time: 15:01:19
(UTC+00:00)

Cosmos 1503 Rocket - Pass Details

Date: 03 March 2021
Orbit: 753 x 790 km, 74.0° (Epoch: 20 April)

Event Time Altitude Azimuth Distance (km) Brightness Sun altitude
Rises 18:28:38 0° 341° (NNW) 3,231 7.5 -8.7°
Reaches altitude 10° 18:31:04 10° 346° (NNW) 2,297 6.7 -9.1°
Maximum altitude 18:36:11 55° 64° (ENE) 908 4.1 -10.0°
Drops below altitude 10° 18:41:13 10° 142° (SE) 2,272 6.1 -10.8°
Sets 18:43:37 0° 147° (SSE) 3,193 6.9 -11.2°
